Weather History for Gainesville, FL

Change the Weather History Date:

Monday, March 11, 2013

  Actual Average Record
Temperature  
Mean Temperature 65 °F 62 °F  
Max Temperature 78 °F 74 °F 88 °F (1974)
Min Temperature 52 °F 49 °F 30 °F (1934)
Degree Days  
Heating Degree Days 0 5  
Month to date heating degree days 131 63  
Since 1 July heating degree days 863 1097  
Cooling Degree Days 0 2  
Month to date cooling degree days 0 16  
Year to date cooling degree days 100 48  
Growing Degree Days 16 (Base 50)    
Moisture  
Dew Point 53 °F    
Average Humidity 67    
Maximum Humidity 93    
Minimum Humidity 40    
Precipitation  
Precipitation T in 0.14 in 1.70 in (1913)
Month to date precipitation 0.02 1.65  
Year to date precipitation 1.99 8.16  
Snow  
Snow 0.00 in 0.00 in 0.00 in ()
Month to date snowfall 0.0 0.0  
Since 1 July snowfall 0.0 0.0  
Snow Depth 0.00 in    
Sea Level Pressure  
Sea Level Pressure 30.02 in    
Wind  
Wind Speed 6 mph (SSE)    
Max Wind Speed 17 mph    
Max Gust Speed 23 mph    
Visibility 10 miles    
Events      
T = Trace of Precipitation, MM = Missing Value Source: NWS Daily Summary

Daily Weather History Graph

Daily Weather History Graph

Search for Another Location

Airport:

Trip Planner

Search our weather history database for the weather conditions in past years. The results will help you decide how hot, cold, wet, or windy it might be!

Date:

Astronomy

Mar. 11, 2013 Rise Set
Actual Time 7:43 AM EDT 7:35 PM EDT
Civil Twilight 7:19 AM EDT 7:58 PM EDT
Nautical Twilight 6:51 AM EDT 8:26 PM EDT
Astronomical Twilight 6:24 AM EDT 8:54 PM EDT
Moon 7:18 AM EDT (3/11) 7:41 PM EDT (3/11)
Length of Visible Light 12h 39m
Length of Day
11h 51m
Waning Crescent, 0% of the Moon is Illuminated
Mar 11
Waning Crescent
Mar 11
New
Mar 19
First Quarter
Mar 27
Full
Apr 3
Last Quarter

Hourly Weather History & Observations

Time (EDT) Temp. Dew Point Humidity Pressure Visibility Wind Dir Wind Speed Gust Speed Precip Events Conditions
12:53 AM 57.0 °F 51.1 °F 81% 30.13 in 10.0 mi ESE 6.9 mph - N/A   Clear
1:53 AM 57.9 °F 53.1 °F 84% 30.12 in 10.0 mi SE 5.8 mph - N/A   Clear
2:53 AM 55.9 °F 52.0 °F 87% 30.11 in 10.0 mi SE 4.6 mph - N/A   Clear
3:53 AM 54.0 °F 51.1 °F 90% 30.08 in 10.0 mi East 4.6 mph - N/A   Clear
4:53 AM 55.0 °F 52.0 °F 89% 30.05 in 10.0 mi Calm Calm - N/A   Clear
5:53 AM 54.0 °F 51.1 °F 90% 30.05 in 10.0 mi Calm Calm - N/A   Clear
6:53 AM 54.0 °F 51.1 °F 90% 30.05 in 10.0 mi Variable 3.5 mph - N/A   Clear
7:53 AM 55.9 °F 53.1 °F 90% 30.06 in 10.0 mi SE 6.9 mph - N/A   Clear
8:53 AM 60.1 °F 55.0 °F 83% 30.05 in 10.0 mi ESE 6.9 mph - N/A   Clear
9:53 AM 66.0 °F 54.0 °F 65% 30.07 in 10.0 mi SE 8.1 mph - N/A   Clear
10:53 AM 69.1 °F 55.0 °F 61% 30.07 in 10.0 mi SSE 13.8 mph 23.0 mph N/A   Clear
11:53 AM 72.0 °F 54.0 °F 53% 30.07 in 10.0 mi SSE 13.8 mph 19.6 mph N/A   Mostly Cloudy
12:53 PM 73.9 °F 53.1 °F 48% 30.06 in 10.0 mi SSE 11.5 mph - N/A   Mostly Cloudy
1:53 PM 75.0 °F 53.1 °F 46% 30.03 in 10.0 mi SSW 10.4 mph - N/A   Mostly Cloudy
2:53 PM 75.9 °F 53.1 °F 45% 29.99 in 10.0 mi SSW 8.1 mph 18.4 mph N/A   Mostly Cloudy
3:53 PM 77.0 °F 52.0 °F 42% 29.95 in 10.0 mi SSW 8.1 mph 16.1 mph N/A   Partly Cloudy
4:53 PM 75.9 °F 53.1 °F 45% 29.94 in 10.0 mi SSW 8.1 mph - N/A   Mostly Cloudy
5:53 PM 75.0 °F 54.0 °F 48% 29.93 in 10.0 mi SSW 11.5 mph - N/A   Clear
6:53 PM 72.0 °F 53.1 °F 51% 29.93 in 10.0 mi SSW 6.9 mph - N/A   Clear
7:53 PM 69.1 °F 53.1 °F 57% 29.91 in 10.0 mi South 3.5 mph - N/A   Clear
8:53 PM 66.0 °F 54.0 °F 65% 29.92 in 10.0 mi Calm Calm - N/A   Clear
9:53 PM 66.0 °F 55.0 °F 68% 29.95 in 10.0 mi WSW 3.5 mph - N/A   Clear
10:53 PM 64.9 °F 55.0 °F 70% 29.95 in 10.0 mi Calm Calm - N/A   Partly Cloudy
11:53 PM 64.9 °F 57.0 °F 75% 29.93 in 10.0 mi SE 5.8 mph - 0.00 in   Mostly Cloudy